Starlink 5635

operational
NORAD ID: 55367 Int'l Des: 2023-013 Owner: SPXS Country: US Constellation: starlink
LEOCIRCULAR

Starlink 5635について

説明を読み込み中...

リアルタイム位置

3D地球を読み込み中...

次回通過

高度履歴

Altitude vs Time

uPlot chart will show altitude changes over time

軌道要素

1 55367U 23013AN 25354.29288877 .00001184 00000-0 10268-3 0 9999
2 55367 43.0040 358.9436 0001164 271.3259 88.7450 15.02535566159913
Epoch: Dec 20, 2025 • Age: 21 hours

現在のステータス

高度 558.4 km
速度 7.58 km/s
衛星直下点 7.50°N, 8.22°E
打ち上げ日 Jan 26, 2023
運用期間 2.8 years
タイプ internet

技術仕様

分類 Payload
質量 305.00 kg
乾燥質量 290.00 kg
総質量 305.00 kg
長さ 0.20 m
直径 2.80 m
スパン 9.00 m
形状 Box + pan
製造者 SPXS
バスタイプ Starlink
フェーズステータス In Orbit
所有者/国 SPXS/US

大規模コンステレーション

Loading constellations...